Location: house
(32.4460°N, 85.5928°W)
Time: 16:23:54
(UTC-05:00)

NO-84 - Visible Passes

Search period start: 18 October 2019 00:00
Search period end: 28 October 2019 00:00
Orbit: 333 x 507 km, 55.0° (Epoch: 16 October)

Date Brightness Start Highest point End Pass type
(mag) Time Alt. Az. Time Alt. Az. Time Alt. Az.
18 Oct ? 05:59:45 10° N 06:01:16 12° NNE 06:02:46 10° ENE visible
20 Oct ? 06:00:37 10° NNW 06:04:00 28° NE 06:07:17 10° ESE visible
21 Oct ? 05:14:02 10° N 05:16:40 17° NE 05:19:17 10° E visible
22 Oct ? 04:29:07 11° NNE 04:29:15 11° NNE 04:30:28 10° NE visible
22 Oct ? 06:02:29 10° NW 06:06:21 86° NE 06:10:07 10° SE visible
23 Oct ? 05:17:29 27° N 05:19:10 44° NE 05:22:48 10° ESE visible
24 Oct ? 04:32:55 23° ENE 04:32:55 23° ENE 04:35:07 10° E visible
24 Oct ? 06:05:58 15° WNW 06:08:22 27° SW 06:11:34 10° S visible
25 Oct ? 05:21:32 52° SW 05:21:32 52° SW 05:24:59 10° SSE visible
26 Oct ? 04:37:10 15° SE 04:37:10 15° SE 04:37:56 10° SE visible
26 Oct ? 19:33:45 10° SSW 19:35:31 28° S 19:35:31 28° S visible
27 Oct ? 18:47:14 10° S 18:49:52 23° ESE 18:50:57 19° E visible
27 Oct ? 20:23:32 10° W 20:23:59 12° W 20:23:59 12° W visible
